CZ-2C R/B

Satellite information

Favourite Embed

Satellite Type and Status

ROCKET BODYIN ORBIT

Key statistics

Satellite CZ-2C R/B at a glance.

Uptime

5204

Days in orbit

Revolutions

≈ 14.7

Per day

Orbit

SSO

Sun Synchronous Orbit

Inclination

98.1

Latest

Satellite identification and parameters

Extended collection of information and parameters for CZ-2C R/B.

Object identification

Identified? True

Debris? False

Object name: CZ-2C R/B

International designator: 2011-039B

Object number (NORAD): 37766

Object ID (CCSDS): 37766

Country: PEOPLES REPUBLIC OF CHINA (PRC)

Current information (Y/N): Y

RCS size: LARGE

Orbital parameters

Period: 97.964 minutes

Inclination: 98.1235 deg

SMA: 7039.418 km

Apoapsis: 691.257 km

Periapsis: 631.308 km

RAAN: 192.8195 deg

Eccentricy: 0.00425807

Argument of periapsis: 336.6579 deg

Mean anomaly: 23.2693 deg

Mean motion: 14.69933409 rev/day

Mean motion (dot): 0.00001183 rev/day2

B* drag term: 0.00020353133 1/REarth

Two-line elements (TLE)

Creation date: Oct. 26, 2025, 2:54 a.m.

Reference frame: TEME

Reference center: EARTH

Epoch: Oct. 25, 2025, 11:30 p.m. UTC

TLE line 0: 0 CZ-2C R/B

TLE line 1: 1 37766U 11039B 25298.97969032 .00001183 00000-0 20353-3 0 9993

TLE line 2: 2 37766 98.1235 192.8195 0042581 336.6579 23.2693 14.69933409762382

Live tracking on map

Real-time ground track for satellite CZ-2C R/B.

In-orbit conjunctions

A list of the most updated potential collisions computed for object CZ-2C R/B.

Target Orbit TCA Probability of collision Miss distance Type
COSMOS 2251 DEB LEO 2025-07-05 13:45:05 0.0006699586 233.0 (m) DEBRIS
CZ-4 DEB SSO 2024-12-19 17:47:58 0.0001777668 71.0 (m) DEBRIS

Associated space launch

CZ-2C R/B was lifted into orbit during the mission ‘Long March 2C | Shijian 10-02’, on board a Long March 2 space rocket.

The launch took place on July 29, 2011, 7:42 a.m. from Launch Area 4 (SLS-2 / 603).

For more information about the launch, click the button.

Launch to space Long March 2C | Shijian 10-02
Long March 2C | Shijian 10-02

Agency: N/A

Status: Launch Successful

Launch date: July 29, 2011, 7:42 a.m. UTC

Rocket: Long March 2

Launch pad: Launch Area 4 (SLS-2 / 603)

Location: Jiuquan Satellite Launch Center, People's Republic of China

...

Latest news about this satellite

There are no fresh news available about this satellite. Check back as we update our databases every day.


Newsletter sign-up

Weekly statistics, charts and insights to help you stay on top of the space industry.